Content
SEND FEEDBACK

Daily
Averages
Monthly
Summary
United States of America

CHICAGO, ILLINOIS


Home > North America > United States > Illinois
Elevation: 674 feet     Latitude: 41 59N     Longitude: 087 54W

WEATHER
 
SELECT A DAY
Number of Records: 195,162;   Date Range: 7/8/95 - 9/21/14
 
SHARE

PRINT THIS DATA

[ ← Previous Day ]
WEATHER ALMANAC - SEPTEMBER 2, 2014
[ Next Day → ]
[ °C ]   °F
Weather ElementAverageHighLow
Temperature75.1 °F82.9 °F (1:52 pm)68 °F (5:52 am)
Dewpoint60.9 °F66.9 °F (1:52 am)55 °F (4:52 pm)
Humidity64.5 %90 % (1:52 am)39 % (1:52 pm)
Barometer29.90 in29.97 in (11:52 pm)29.85 in (1:52 am)
Wind Speed4.7 mph10.4 mph (4:52 pm)
Weather ElementAverage
Visibility9.7 mi
Wind DirectionSSW (205.9 °)

Weather ElementTotal
Precipitation---
Cooling Degree Days10.5 (Base 65)
Growing Degree Days25.5 (Base 50)
Averaged from 22 records on September 2, 2014
WEATHER CONDITIONS BREAKOUT
WIND DIRECTION BREAKOUT
WEATHER BY HOUR - SEPTEMBER 2, 2014
[ °C ]   °F
Local TimeTemperatureDewpointHumidityBarometerVisibilityWind DirectionWind SpeedGust SpeedPrecipitationEventsConditions
1:52 AM70.0 °F66.9 °F90 %29.85 in10.0 miNorth (350°)3.5 mphPartly Cloudy
2:52 AM70.0 °F66.9 °F90 %29.87 in10.0 miSouth (190°)4.6 mphOvercast
3:52 AM70.0 °F66.0 °F87 %29.87 in10.0 miWNW (300°)3.5 mphClear
4:52 AM69.1 °F64.9 °F87 %29.88 in10.0 miCalmScattered Clouds
5:52 AM68.0 °F64.9 °F90 %29.87 in10.0 miCalmScattered Clouds
6:52 AM68.0 °F64.0 °F87 %29.88 in3.0 miCalmClear
7:52 AM70.0 °F64.9 °F84 %29.89 in10.0 miCalmClear
8:52 AM73.9 °F64.9 °F73 %29.89 in10.0 miNNW (340°)3.5 mphClear
9:52 AM75.9 °F64.0 °F67 %29.91 in10.0 miWSW (250°)3.5 mphClear
10:52 AM78.1 °F62.1 °F58 %29.91 in10.0 miWSW (250°)8.1 mphPartly Cloudy
11:52 AM80.1 °F55.9 °F43 %29.90 in10.0 miNW (310°)6.9 mphClear
12:52 PM81.0 °F57.0 °F44 %29.89 in10.0 miNW (310°)8.1 mphClear
1:52 PM82.9 °F55.9 °F39 %29.91 in10.0 miWest (280°)9.2 mphClear
2:52 PM82.0 °F57.9 °F44 %29.91 in10.0 miWNW (290°)8.1 mphScattered Clouds
3:52 PM82.9 °F55.9 °F39 %29.90 in10.0 miWest (280°)9.2 mphScattered Clouds
4:52 PM81.0 °F55.0 °F41 %29.91 in10.0 miWNW (300°)10.4 mphPartly Cloudy
5:52 PM80.1 °F55.9 °F43 %29.89 in10.0 miWest (280°)9.2 mphPartly Cloudy
6:52 PM79.0 °F57.0 °F47 %29.88 in10.0 miWest (270°)6.9 mphMostly Cloudy
7:52 PM77.0 °F57.9 °F52 %29.90 in10.0 miWest (270°)5.8 mphPartly Cloudy
8:52 PM75.0 °F60.1 °F60 %29.93 in10.0 miWest (260°)3.5 mphClear
10:52 PM69.1 °F61.0 °F75 %29.95 in10.0 miCalmClear
11:52 PM68.0 °F61.0 °F78 %29.97 in10.0 miCalmClear
Hourly data recorded from KPWK, located miles away from Chicago, Illinois







STORIES FROM OUR PARTNERS